Regional Weather Roundup
Issued by NWS Grand Forks, ND

Home | Current Version | Previous Version | Text Only | Print | Product List | Glossary On
Versions: 1 2 3 4 5 6 7 8 9 10 11 12 13 14 15 16 17 18 19 20 21 22 23 24 25 26 27 28 29 30 31 32 33 34 35 36 37 38 39 40 41 42 43 44 45 46 47 48 49 50
000
ASUS43 KFGF 211510
RWRFGF
PRAIRIE TO PINES  WEATHER ROUNDUP
NATIONAL WEATHER SERVICE EASTERN NORTH DAKOTA/GRAND FORKS ND
1000 AM CDT SUN SEP 21 2014

 **SATELLITE DATA USED TO AUGMENT SKY COVER AT AUTOMATED STATIONS**
 *****  WEATHER ACROSS EASTERN NORTH DAKOTA  *****

CITY           SKY/WX    TMP DP  RH WIND       PRES   REMARKS
GRAND FORKS    CLOUDY    53  51  93 NW13      30.20R
GRAND FRKS AFB PTSUNNY   56  54  90 N14       30.21R
GRAND FRKS NWS   N/A     52 N/A N/A N7          N/A
DEVILS LAKE    MOSUNNY   55  45  67 NW10      30.22R
FARGO          CLOUDY    55  50  83 N13       30.20R
WAHPETON ARPT  MOSUNNY   55  46  71 N15       30.20R
$$

 ***** WEATHER ACROSS CENTRAL AND WESTERN NORTH DAKOTA  *****

CITY           SKY/WX    TMP DP  RH WIND       PRES   REMARKS
BISMARCK       SUNNY     57  43  59 NW5       30.29R
MINOT          SUNNY     57  44  62 NW8       30.26R
JAMESTOWN      SUNNY     56  48  74 NW9       30.24R
MINOT AFB      SUNNY     56  46  68 NW9       30.26R
GARRISON         N/A     57  45  64 NW8       30.27R
WILLISTON      SUNNY     50  39  66 S5        30.30R
DICKINSON      SUNNY     57  41  55 W8        30.30R
HETTINGER      SUNNY     54  42  64 NW3       30.33R
$$

 *****  OTHER AIRPORT OBSERVATIONS IN OUR AREA  *****

CITY           SKY/WX    TMP DP  RH WIND       PRES   REMARKS
WALHALLA         N/A     54  54 100 NW13      30.21R
GRAFTON AIRPOR CLOUDY    54  52  94 N7        30.20R
VALLEY CITY AR FAIR      55  54  94 NW8       30.23R
CANDO          FAIR      57  50  77 NW9       30.24R
CAVALIER APRT  CLOUDY    54  50  87 NW9       30.21R
GWINNER        SUNNY     57  50  77 N12       30.24R
SHEYENNE NWR     N/A     58  51  77 N7        29.95
ROLLA          FAIR      55  48  76 N8        30.24R
 ***** THE ABOVE OBSERVATIONS ARE NON NWS ARE NOT QUALITY
       CONTROLLED AND MAY MIS-REPORT RAIN FOR SNOW...
$$

  *****  WEATHER ACROSS NORTHERN MINNESOTA  *****

CITY           SKY/WX    TMP DP  RH WIND       PRES   REMARKS
FLAG ISLAND    CLOUDY    52  48  87 N3        30.14R
WARROAD        PTSUNNY   55  52  88 NW5       30.17R
ROSEAU         CLOUDY    54  48  82 W6        30.17R
HALLOCK        CLOUDY    54  52  94 N9        30.19R
THF RVR FALLS  CLOUDY    52  48  87 NW12      30.18R
BAUDETTE       MOSUNNY   54  49  83 N8        30.14R
WASKISH        CLOUDY    52  52 100 CALM      30.15R
CROOKSTON      CLOUDY    52  52 100 N8        30.20R
STEPHEN NDAWN    N/A     54  52  94 N9          N/A
GREENBUSH NDAW   N/A     52  52 100 NW9         N/A
$$
  *****  WEATHER ACROSS CENTRAL AND WEST MINNESOTA  *****

CITY           SKY/WX    TMP DP  RH WIND       PRES   REMARKS
FOSSTON        CLOUDY    52  50  93 NW9       30.19R
BEMIDJI        PTSUNNY   54  50  86 N9        30.15R
PARK RAPIDS    CLOUDY    54  49  83 NW15      30.15R
ELBOW LAKE     CLOUDY    52  49  89 NW14      30.18R
WADENA         CLOUDY    54  50  87 NW9       30.16R
DETROIT LAKES  CLOUDY    52  50  93 N13G18    30.19R
MOORHEAD       CLOUDY    54  54 100 N12       30.21R
FERGUS FALLS   CLOUDY    54  50  87 N9        30.20R
MORRIS MN      SUNNY     54  52  94 N13       30.18R
STAPLES        CLOUDY    54  50  87 NW8       30.15R
$$
  *****  WEATHER ELSEWHERE ACROSS MINNESOTA  *****

CITY           SKY/WX    TMP DP  RH WIND       PRES   REMARKS
DULUTH         PTSUNNY   55  45  68 N17G24    30.06R
INTRNTL FALLS  SUNNY     52  44  74 NE7       30.13R
ELY            CLOUDY    48  39  71 N6        30.08R
CLOQUET        CLOUDY    54  46  76 NW8       30.08R
WHEATON        MOSUNNY   55  48  76 NW13      30.22R
BRAINERD       MOSUNNY   54  47  77 N12       30.14R
HIBBING        MOSUNNY   55  46  71 N12       30.10R
ALEXANDRIA     CLOUDY    53  50  89 NW12      30.18R
SAINT CLOUD    PTSUNNY   58  48  69 NW12      30.13R
MINNEAPOLIS    CLOUDY    55  47  74 NW17      30.11R
$$

  *****  WEATHER ACROSS SOUTH DAKOTA  *****

CITY           SKY/WX    TMP DP  RH WIND       PRES   REMARKS
SIOUX FALLS    SUNNY     60  47  61 N12       30.22R
BROOKINGS      NOT AVBL
WATERTOWN      SUNNY     57  48  72 NW13      30.22R
HURON          SUNNY     58  44  60 N10       30.26R
SISSETON         N/A     58  51  78 N13       30.21R
ABERDEEN       SUNNY     58  47  66 N9        30.26R
MITCHELL       SUNNY     60  46  59 N9        30.27R
PIERRE         SUNNY     59  42  53 NW10      30.29R
MOBRIDGE       SUNNY     54  44  69 NW9       30.27R
RAPID CITY     SUNNY     60  39  45 CALM      30.36R
$$

  *****  SOME WEATHER IN NEARBY STATES *****

CITY           SKY/WX    TMP DP  RH WIND       PRES   REMARKS
GLASGOW MT     SUNNY     52  40  63 CALM      30.29R
GREAT FALLS MT SUNNY     53  44  71 CALM      30.23F
CHEYENNE WY    CLOUDY    57  37  47 S9        30.42S
SCOTTSBLUFF NE CLOUDY    59  43  55 E5        30.39R
OMAHA NE       SUNNY     63  47  55 NW15      30.22R
DES MOINES IA  SUNNY     64  48  56 N21G29    30.11R
DAVENPORT IA   MOSUNNY   61  47  59 NW21G30   29.98R
CHICAGO IL     CLOUDY    61  50  67 NW16G24   29.85R
EAU CLAIRE WI  MOSUNNY   58  47  66 N16G23    30.02R
LA CROSSE WI   CLOUDY    59  51  75 NW13      29.98R
$$

  *****  SOME NATIONAL WEATHER *****

CITY           SKY/WX    TMP DP  RH WIND       PRES   REMARKS
LA GUARDIA NY  CLOUDY    71  67  87 NE5       29.84F
RALEIGH NC     PTSUNNY   74  59  59 NW7       29.91S
ATLANTA GA     MOSUNNY   79  62  56 W12       30.07S
NEW ORLEANS LA MOSUNNY   82  70  66 NE12      30.03R
OKLAHOMA CITY  PTSUNNY   81  67  62 NW7       30.13R
ALBUQUERQUE NM MOSUNNY   70  55  59 E21       30.31R
SALT LAKE CITY CLOUDY    68  53  58 SE8       30.16R
LOS ANGELES CA PTSUNNY   69  62  78 CALM      29.99R
BOISE ID       PTSUNNY   62  46  55 E3        30.04R
SEATTLE WA     MOSUNNY   57  54  89 S3        29.89R
$$

*** WEATHER ACROSS MANITOBA...SASKATCHEWAN AND ONTARIO ***
                ***ONTARIO***

CITY           SKY/WX    TMP DP  RH WIND       PRES   REMARKS
GERALDTON      PTSUNNY   41  37  87 NE10      30.00
THUNDER BAY    PTSUNNY   48  37  66 N10G17    30.04R
SIOUX LOOKOUT  MOSUNNY   48  41  76 N5        30.11R
TORONTO        PTSUNNY   72  63  73 SW21      29.55R
BIG TROUT LK   CLOUDY    39  36  87 NW5       30.08R
PICKLE LAKE    PTSUNNY   41  34  75 NW7       30.08R
DRYDEN         SUNNY     48  39  71 NW5       30.13R
KENORA         PTSUNNY   50  48  93 N2        30.15R
$$
                *** MANITOBA***

CITY           SKY/WX    TMP DP  RH WIND       PRES   REMARKS
BRANDON        MOSUNNY   55  50  82 NW7       30.23R
DAUPHIN        SUNNY     55  48  76 W9        30.20R
ISLAND LAKE    MOSUNNY   50  43  76 CALM      30.11R
PILOT MOUND    NOT AVBL
THE PAS        MOSUNNY   52  48  87 SW5       30.11S
THOMPSON       CLOUDY    41  41 100 SW6       30.04S FOG
WINNIPEG       PTSUNNY   54  52  94 N10       30.20R
LYNN LAKE      SUNNY     50  46  87 SW9G17    29.94F
CHURCHILL      LGT RAIN  36  34  93 S7        29.90F
GILLAM         PTSUNNY   37  37 100 S7        30.01F
$$
                ***SASKATCHEWAN***

CITY           SKY/WX    TMP DP  RH WIND       PRES   REMARKS
ESTEVAN        SUNNY     50  45  81 W3        30.28R
KINDERSLEY     SUNNY     52  43  71 S8        30.19S
LLOYDMINSTER   MOSUNNY   57  43  58 SW9       30.09R
PRINCE ALBERT  NOT AVBL
REGINA         SUNNY     52  45  76 W7        30.25R
YORKTON        SUNNY     55  48  76 SW7       30.21S
N. BATTLEFORD  SUNNY     55  43  62 S5        30.14S
LA RONGE       NOT AVBL
SASKATOON      SUNNY     52  41  66 SW9       30.18F
SWIFT CURRENT  SUNNY     57  39  51 S14       30.24R
$$
NOTE: THESE ARE AUTOMATED STATIONS WITH LIMITED QUALITY CONTROL
      "FAIR" INDICATES FEW OR NO CLOUDS BELOW 12,000 FEET WITH NO
      SIGNIFICANT WEATHER AND/OR OBSTRUCTIONS TO VISIBILITY.
      SKY/WX - SKY CONDITION AND SIGNIFICANT WEATHER.
      TMP - AIR TEMPERATURE.    DP   - DEWPOINT TEMPERATURE.
      RH  - RELATIVE HUMIDITY.  PRES - PRESSURE.
      HX  - HEAT INDEX.         WCI  - WIND CHILL INDEX.
$



USA.gov is the U.S. government's official web portal to all federal, state and local government web resources and services.